| time (UTC) | temp C | wind direction | speed KPH | gust KPH | rain 1hr cm | rain 24hr cm | rain mn cm | humidity % | barometer mb |
| 20260903191507 | 18 | 270 | 0.0 | 3.2 | 0.00 | 0.00 | 0.00 | 69 | 1013.6 |
| 20260903191453 | 18 | 194 | 3.2 | 3.2 | 0.00 | 0.10 | 0.10 | 67 | 1015.4 |
| 20260903191007 | 18 | 253 | 1.6 | 8.0 | 0.00 | 0.00 | 0.00 | 69 | 1013.7 |
| 20260903190953 | 18 | 196 | 3.2 | 8.0 | 0.00 | 0.10 | 0.10 | 68 | 1015.7 |
| 20260903190508 | 18 | 196 | 3.2 | 8.0 | 0.00 | 0.00 | 0.00 | 69 | 1013.8 |
| 20260903190453 | 18 | 188 | 4.8 | 8.0 | 0.00 | 0.10 | 0.10 | 68 | 1015.7 |
| 20260903190007 | 18 | 187 | 3.2 | 8.0 | 0.00 | 0.00 | 0.00 | 69 | 1013.7 |
| 20260903185959 | 18 | 190 | 4.8 | 8.0 | 0.00 | 0.10 | 0.10 | 68 | 1015.8 |
| 20260903185454 | 18 | 197 | 4.8 | 8.0 | 0.00 | 0.10 | 0.10 | 69 | 1015.7 |
| 20260903185008 | 18 | 202 | 1.6 | 4.8 | 0.00 | 0.00 | 0.00 | 69 | 1014.0 |
| 20260903184953 | 18 | 187 | 4.8 | 6.4 | 0.00 | 0.10 | 0.10 | 68 | 1015.9 |
| 20260903184507 | 18 | 181 | 1.6 | 4.8 | 0.00 | 0.00 | 0.00 | 69 | 1013.8 |
| 20260903184453 | 18 | 181 | 3.2 | 4.8 | 0.00 | 0.10 | 0.10 | 68 | 1015.7 |
| 20260903184008 | 18 | 186 | 3.2 | 6.4 | 0.00 | 0.00 | 0.00 | 69 | 1014.0 |
| 20260903183954 | 18 | 157 | 4.8 | 8.0 | 0.00 | 0.10 | 0.10 | 68 | 1015.9 |
| 20260903183507 | 18 | 181 | 4.8 | 6.4 | 0.00 | 0.00 | 0.00 | 69 | 1014.0 |
| 20260903183453 | 18 | 158 | 6.4 | 8.0 | 0.00 | 0.10 | 0.10 | 68 | 1016.0 |
| 20260903183007 | 18 | 172 | 1.6 | 6.4 | 0.00 | 0.00 | 0.00 | 69 | 1013.9 |
| 20260903182953 | 18 | 174 | 4.8 | 6.4 | 0.00 | 0.10 | 0.10 | 68 | 1015.7 |
| 20260903182508 | 18 | 181 | 0.0 | 1.6 | 0.00 | 0.00 | 0.00 | 69 | 1013.9 |
| 20260903182453 | 18 | 181 | 1.6 | 3.2 | 0.00 | 0.10 | 0.10 | 67 | 1015.9 |
| 20260903182008 | 18 | 181 | 0.0 | 3.2 | 0.00 | 0.00 | 0.00 | 69 | 1014.0 |
| 20260903181953 | 18 | 181 | 1.6 | 4.8 | 0.00 | 0.10 | 0.10 | 67 | 1016.0 |
| 20260903181508 | 18 | 181 | 0.0 | 3.2 | 0.00 | 0.00 | 0.00 | 69 | 1014.0 |
| 20260903181453 | 18 | 181 | 3.2 | 4.8 | 0.00 | 0.10 | 0.10 | 67 | 1015.8 |
| 20260903181007 | 18 | 0 | 0.0 | 0.0 | 0.00 | 0.00 | 0.00 | 68 | 1014.2 |
| 20260903180953 | 18 | 181 | 1.6 | 3.2 | 0.00 | 0.10 | 0.10 | 67 | 1015.9 |
| 20260903180507 | 18 | 0 | 0.0 | 0.0 | 0.00 | 0.00 | 0.00 | 68 | 1014.1 |
| 20260903180453 | 18 | 181 | 3.2 | 3.2 | 0.00 | 0.10 | 0.10 | 67 | 1015.9 |
| 20260903180008 | 18 | 0 | 0.0 | 0.0 | 0.00 | 0.00 | 0.00 | 68 | 1013.9 |
| 20260903175959 | 18 | 183 | 1.6 | 3.2 | 0.00 | 0.10 | 0.10 | 67 | 1016.2 |
| 20260903175508 | 18 | 0 | 0.0 | 0.0 | 0.00 | 0.00 | 0.00 | 68 | 1013.9 |
| 20260903175453 | 18 | 212 | 1.6 | 3.2 | 0.00 | 0.10 | 0.10 | 67 | 1015.8 |
| 20260903175007 | 18 | 0 | 0.0 | 0.0 | 0.00 | 0.00 | 0.00 | 68 | 1013.9 |
| 20260903174953 | 18 | 234 | 3.2 | 4.8 | 0.00 | 0.10 | 0.10 | 67 | 1015.7 |
| 20260903174507 | 18 | 237 | 1.6 | 9.7 | 0.00 | 0.00 | 0.00 | 68 | 1014.1 |
| 20260903174453 | 18 | 245 | 4.8 | 8.0 | 0.00 | 0.10 | 0.10 | 67 | 1015.9 |
| 20260903174007 | 18 | 251 | 4.8 | 9.7 | 0.00 | 0.00 | 0.00 | 68 | 1014.1 |
| 20260903173953 | 18 | 261 | 6.4 | 9.7 | 0.00 | 0.10 | 0.10 | 67 | 1015.8 |
| 20260903173507 | 18 | 260 | 6.4 | 9.7 | 0.00 | 0.00 | 0.00 | 68 | 1014.0 |
| 20260903173454 | 18 | 268 | 6.4 | 9.7 | 0.00 | 0.10 | 0.10 | 65 | 1016.0 |
| 20260903173007 | 18 | 276 | 6.4 | 9.7 | 0.00 | 0.00 | 0.00 | 66 | 1014.0 |
| 20260903172508 | 18 | 290 | 8.0 | 12.9 | 0.00 | 0.00 | 0.00 | 66 | 1014.0 |
| 20260903172454 | 18 | 254 | 9.7 | 12.9 | 0.00 | 0.10 | 0.10 | 65 | 1016.0 |
| 20260903172007 | 19 | 270 | 8.0 | 12.9 | 0.00 | 0.00 | 0.00 | 66 | 1014.1 |
| 20260903171953 | 19 | 255 | 8.0 | 12.9 | 0.00 | 0.10 | 0.10 | 65 | 1015.9 |
| 20260903171507 | 19 | 249 | 6.4 | 9.7 | 0.00 | 0.00 | 0.00 | 65 | 1014.0 |
| 20260903171454 | 19 | 265 | 8.0 | 9.7 | 0.00 | 0.10 | 0.10 | 64 | 1016.0 |
| 20260903171007 | 19 | 253 | 6.4 | 8.0 | 0.00 | 0.00 | 0.00 | 65 | 1014.0 |
| 20260903170453 | 19 | 281 | 8.0 | 11.3 | 0.00 | 0.10 | 0.10 | 64 | 1015.9 |
| 20260903170007 | 20 | 264 | 11.3 | 12.9 | 0.00 | 0.00 | 0.00 | 64 | 1013.8 |
| 20260903165959 | 20 | 281 | 11.3 | 14.5 | 0.00 | 0.10 | 0.10 | 63 | 1015.9 |
| 20260903165507 | 20 | 260 | 11.3 | 14.5 | 0.00 | 0.00 | 0.00 | 62 | 1013.8 |
| 20260903165453 | 20 | 273 | 11.3 | 14.5 | 0.00 | 0.10 | 0.10 | 61 | 1015.9 |
| 20260903165007 | 20 | 248 | 11.3 | 14.5 | 0.00 | 0.00 | 0.00 | 62 | 1013.9 |
| 20260903164953 | 20 | 272 | 11.3 | 14.5 | 0.00 | 0.10 | 0.10 | 60 | 1015.8 |
| 20260903164507 | 20 | 245 | 9.7 | 12.9 | 0.00 | 0.00 | 0.00 | 61 | 1013.7 |
| 20260903164453 | 20 | 283 | 11.3 | 12.9 | 0.00 | 0.10 | 0.10 | 59 | 1015.7 |
| 20260903164008 | 20 | 247 | 12.9 | 17.7 | 0.00 | 0.00 | 0.00 | 60 | 1013.8 |
| 20260903163953 | 20 | 279 | 12.9 | 20.9 | 0.00 | 0.10 | 0.10 | 58 | 1015.6 |
| 20260903163507 | 20 | 248 | 14.5 | 22.5 | 0.00 | 0.00 | 0.00 | 60 | 1013.9 |
| 20260903163453 | 20 | 275 | 14.5 | 22.5 | 0.00 | 0.10 | 0.10 | 58 | 1015.5 |
| 20260903162953 | 20 | 268 | 17.7 | 24.1 | 0.00 | 0.10 | 0.10 | 58 | 1015.8 |
| 20260903162508 | 21 | 299 | 14.5 | 24.1 | 0.00 | 0.00 | 0.00 | 62 | 1013.9 |
| 20260903162453 | 20 | 260 | 16.1 | 24.1 | 0.00 | 0.10 | 0.10 | 60 | 1015.7 |
| 20260903162007 | 21 | 281 | 11.3 | 14.5 | 0.00 | 0.00 | 0.00 | 63 | 1013.9 |
| 20260903161953 | 21 | 271 | 11.3 | 16.1 | 0.00 | 0.10 | 0.10 | 61 | 1016.0 |
| 20260903161507 | 21 | 259 | 11.3 | 16.1 | 0.00 | 0.00 | 0.00 | 61 | 1013.9 |
| 20260903161453 | 21 | 269 | 8.0 | 14.5 | 0.00 | 0.10 | 0.10 | 60 | 1016.0 |
| 20260903161007 | 21 | 245 | 9.7 | 16.1 | 0.00 | 0.00 | 0.00 | 60 | 1013.9 |
| 20260903160953 | 21 | 240 | 6.4 | 14.5 | 0.00 | 0.10 | 0.10 | 58 | 1015.9 |
| 20260903160507 | 21 | 228 | 8.0 | 11.3 | 0.00 | 0.00 | 0.00 | 60 | 1014.0 |
| 20260903160453 | 21 | 251 | 6.4 | 12.9 | 0.00 | 0.10 | 0.10 | 58 | 1015.9 |
| 20260903160007 | 21 | 253 | 9.7 | 12.9 | 0.00 | 0.00 | 0.00 | 60 | 1013.8 |
| 20260903155959 | 21 | 267 | 9.7 | 12.9 | 0.00 | 0.10 | 0.10 | 58 | 1015.7 |
| 20260903155507 | 21 | 261 | 11.3 | 14.5 | 0.00 | 0.00 | 0.00 | 60 | 1013.9 |
| 20260903155453 | 21 | 260 | 11.3 | 14.5 | 0.00 | 0.10 | 0.10 | 58 | 1015.9 |
| 20260903155008 | 21 | 253 | 11.3 | 14.5 | 0.00 | 0.00 | 0.00 | 59 | 1014.0 |
| 20260903154507 | 21 | 262 | 11.3 | 12.9 | 0.00 | 0.00 | 0.00 | 60 | 1014.0 |
| 20260903154453 | 21 | 250 | 11.3 | 14.5 | 0.00 | 0.10 | 0.10 | 58 | 1015.9 |
| 20260903154007 | 21 | 266 | 11.3 | 12.9 | 0.00 | 0.00 | 0.00 | 60 | 1013.9 |
| 20260903153953 | 21 | 246 | 11.3 | 14.5 | 0.00 | 0.10 | 0.10 | 58 | 1016.0 |
| 20260903153507 | 21 | 238 | 11.3 | 16.1 | 0.00 | 0.00 | 0.00 | 60 | 1014.2 |
| 20260903153453 | 21 | 270 | 11.3 | 17.7 | 0.00 | 0.10 | 0.10 | 58 | 1015.8 |
| 20260903153007 | 21 | 234 | 12.9 | 16.1 | 0.00 | 0.00 | 0.00 | 60 | 1014.1 |
| 20260903152953 | 21 | 289 | 12.9 | 17.7 | 0.00 | 0.10 | 0.10 | 58 | 1016.1 |
| 20260903152507 | 21 | 263 | 12.9 | 19.3 | 0.00 | 0.00 | 0.00 | 60 | 1014.2 |
| 20260903152453 | 21 | 298 | 12.9 | 19.3 | 0.00 | 0.10 | 0.10 | 59 | 1016.0 |
| 20260903151953 | 21 | 308 | 12.9 | 19.3 | 0.00 | 0.10 | 0.10 | 58 | 1016.2 |
| 20260903151507 | 21 | 311 | 12.9 | 17.7 | 0.00 | 0.00 | 0.00 | 59 | 1014.2 |
| 20260903151453 | 21 | 309 | 12.9 | 17.7 | 0.00 | 0.10 | 0.10 | 58 | 1016.1 |
| 20260903151007 | 21 | 296 | 12.9 | 17.7 | 0.00 | 0.00 | 0.00 | 59 | 1014.3 |
| 20260903150953 | 21 | 300 | 14.5 | 19.3 | 0.00 | 0.10 | 0.10 | 57 | 1016.2 |
| 20260903150453 | 21 | 294 | 14.5 | 22.5 | 0.00 | 0.10 | 0.10 | 57 | 1016.4 |
| 20260903150007 | 21 | 266 | 14.5 | 20.9 | 0.00 | 0.00 | 0.00 | 57 | 1014.3 |
| 20260903145959 | 21 | 297 | 14.5 | 22.5 | 0.00 | 0.10 | 0.10 | 56 | 1016.4 |
| 20260903145507 | 21 | 270 | 14.5 | 20.9 | 0.00 | 0.00 | 0.00 | 57 | 1014.3 |
| 20260903145453 | 21 | 281 | 14.5 | 24.1 | 0.00 | 0.10 | 0.10 | 56 | 1016.4 |
| 20260903144507 | 22 | 232 | 16.1 | 24.1 | 0.00 | 0.00 | 0.00 | 55 | 1014.4 |
| 20260903144453 | 21 | 247 | 16.1 | 24.1 | 0.00 | 0.10 | 0.10 | 55 | 1016.4 |
| 20260903144007 | 22 | 230 | 14.5 | 20.9 | 0.00 | 0.00 | 0.00 | 55 | 1014.4 |
| 20260903143953 | 22 | 247 | 16.1 | 22.5 | 0.00 | 0.10 | 0.10 | 54 | 1016.4 |
| 20260903143453 | 22 | 262 | 11.3 | 19.3 | 0.00 | 0.10 | 0.10 | 53 | 1016.5 |
| 20260903143007 | 22 | 297 | 11.3 | 16.1 | 0.00 | 0.00 | 0.00 | 55 | 1014.3 |
| 20260903142953 | 22 | 258 | 11.3 | 17.7 | 0.00 | 0.10 | 0.10 | 53 | 1016.4 |
| 20260903142507 | 22 | 276 | 12.9 | 17.7 | 0.00 | 0.00 | 0.00 | 55 | 1014.3 |
| 20260903142453 | 22 | 272 | 12.9 | 17.7 | 0.10 | 0.10 | 0.10 | 54 | 1016.6 |
| 20260903142007 | 22 | 276 | 16.1 | 19.3 | 0.00 | 0.00 | 0.00 | 53 | 1014.5 |
| 20260903141953 | 22 | 297 | 14.5 | 22.5 | 0.10 | 0.10 | 0.10 | 52 | 1016.2 |
| 20260903141507 | 22 | 293 | 14.5 | 19.3 | 0.00 | 0.00 | 0.00 | 53 | 1014.5 |
| 20260903141453 | 22 | 315 | 14.5 | 22.5 | 0.10 | 0.10 | 0.10 | 51 | 1016.6 |
| 20260903141007 | 22 | 257 | 11.3 | 17.7 | 0.00 | 0.00 | 0.00 | 52 | 1014.5 |
| 20260903140953 | 22 | 327 | 11.3 | 14.5 | 0.10 | 0.10 | 0.10 | 51 | 1016.3 |
| 20260903140507 | 22 | 246 | 11.3 | 19.3 | 0.00 | 0.00 | 0.00 | 53 | 1014.7 |
| 20260903140453 | 22 | 296 | 12.9 | 19.3 | 0.10 | 0.10 | 0.10 | 51 | 1016.7 |
| 20260903140007 | 22 | 280 | 12.9 | 19.3 | 0.00 | 0.00 | 0.00 | 53 | 1014.6 |
| 20260903135959 | 22 | 266 | 12.9 | 19.3 | 0.10 | 0.10 | 0.10 | 51 | 1016.6 |
| 20260903135507 | 22 | 269 | 11.3 | 17.7 | 0.00 | 0.00 | 0.00 | 53 | 1014.5 |
| 20260903135454 | 22 | 241 | 11.3 | 17.7 | 0.10 | 0.10 | 0.10 | 51 | 1016.5 |
| 20260903135007 | 22 | 237 | 11.3 | 17.7 | 0.00 | 0.00 | 0.00 | 53 | 1014.5 |
| 20260903134953 | 22 | 240 | 9.7 | 17.7 | 0.10 | 0.10 | 0.10 | 51 | 1016.6 |
| 20260903134507 | 22 | 240 | 11.3 | 17.7 | 0.00 | 0.00 | 0.00 | 54 | 1014.4 |
| 20260903134007 | 22 | 236 | 11.3 | 19.3 | 0.00 | 0.00 | 0.00 | 53 | 1014.7 |
| 20260903133953 | 22 | 258 | 9.7 | 14.5 | 0.10 | 0.10 | 0.10 | 51 | 1016.6 |
| 20260903133507 | 22 | 240 | 9.7 | 19.3 | 0.00 | 0.00 | 0.00 | 54 | 1014.8 |
| 20260903133453 | 22 | 247 | 9.7 | 16.1 | 0.10 | 0.10 | 0.10 | 52 | 1016.6 |
| 20260903133007 | 22 | 254 | 11.3 | 16.1 | 0.00 | 0.00 | 0.00 | 55 | 1014.9 |
| 20260903132953 | 22 | 245 | 12.9 | 16.1 | 0.10 | 0.10 | 0.10 | 53 | 1016.5 |
| 20260903132507 | 22 | 273 | 11.3 | 16.1 | 0.00 | 0.00 | 0.00 | 55 | 1014.9 |
| 20260903131953 | 22 | 263 | 11.3 | 12.9 | 0.00 | 0.00 | 0.00 | 52 | 1016.9 |
| 20260903131453 | 22 | 265 | 11.3 | 16.1 | 0.00 | 0.00 | 0.00 | 52 | 1016.9 |
| 20260903131007 | 22 | 259 | 11.3 | 16.1 | 0.00 | 0.00 | 0.00 | 54 | 1014.9 |
| 20260903130953 | 22 | 249 | 11.3 | 16.1 | 0.00 | 0.00 | 0.00 | 52 | 1017.1 |
| 20260903130507 | 22 | 256 | 9.7 | 12.9 | 0.00 | 0.00 | 0.00 | 56 | 1015.0 |
| 20260903130453 | 22 | 237 | 11.3 | 14.5 | 0.00 | 0.00 | 0.00 | 54 | 1016.9 |
| 20260903130007 | 22 | 290 | 9.7 | 12.9 | 0.00 | 0.00 | 0.00 | 56 | 1015.0 |
| 20260903125959 | 22 | 257 | 11.3 | 14.5 | 0.00 | 0.00 | 0.00 | 54 | 1017.0 |
| 20260903125507 | 22 | 293 | 8.0 | 12.9 | 0.00 | 0.00 | 0.00 | 56 | 1015.0 |
| 20260903125007 | 21 | 257 | 8.0 | 12.9 | 0.00 | 0.00 | 0.00 | 57 | 1015.2 |
| 20260903124953 | 21 | 263 | 8.0 | 12.9 | 0.00 | 0.00 | 0.00 | 55 | 1016.8 |
| 20260903124507 | 21 | 254 | 8.0 | 11.3 | 0.00 | 0.00 | 0.00 | 57 | 1015.3 |
| 20260903124453 | 21 | 263 | 6.4 | 12.9 | 0.00 | 0.00 | 0.00 | 56 | 1017.1 |
| 20260903124008 | 21 | 262 | 8.0 | 12.9 | 0.00 | 0.00 | 0.00 | 55 | 1015.1 |
| 20260903123953 | 21 | 233 | 8.0 | 12.9 | 0.00 | 0.00 | 0.00 | 53 | 1017.2 |
| 20260903123507 | 21 | 255 | 11.3 | 14.5 | 0.00 | 0.00 | 0.00 | 55 | 1015.2 |
| 20260903123453 | 21 | 249 | 11.3 | 16.1 | 0.00 | 0.00 | 0.00 | 53 | 1017.1 |
| 20260903123007 | 22 | 252 | 12.9 | 16.1 | 0.00 | 0.00 | 0.00 | 54 | 1015.2 |
| 20260903122953 | 21 | 265 | 12.9 | 16.1 | 0.00 | 0.00 | 0.00 | 53 | 1017.1 |
| 20260903122454 | 21 | 245 | 8.0 | 16.1 | 0.00 | 0.00 | 0.00 | 54 | 1017.3 |
| 20260903122007 | 21 | 251 | 6.4 | 8.0 | 0.00 | 0.00 | 0.00 | 58 | 1015.4 |
| 20260903121507 | 21 | 259 | 8.0 | 12.9 | 0.00 | 0.00 | 0.00 | 57 | 1015.3 |
| 20260903121453 | 21 | 251 | 8.0 | 12.9 | 0.00 | 0.00 | 0.00 | 55 | 1017.2 |
| 20260903120954 | 21 | 266 | 12.9 | 12.9 | 0.00 | 0.00 | 0.00 | 54 | 1017.4 |
| 20260903120507 | 21 | 260 | 11.3 | 12.9 | 0.00 | 0.00 | 0.00 | 57 | 1015.4 |
| 20260903120453 | 22 | 259 | 12.9 | 16.1 | 0.00 | 0.00 | 0.00 | 53 | 1017.4 |
| 20260903115507 | 21 | 260 | 11.3 | 16.1 | 0.00 | 0.00 | 0.00 | 58 | 1015.6 |
| 20260903115453 | 21 | 289 | 11.3 | 17.7 | 0.00 | 0.00 | 0.00 | 55 | 1017.5 |
| 20260903115007 | 21 | 270 | 9.7 | 12.9 | 0.00 | 0.00 | 0.00 | 58 | 1015.5 |
| 20260903114953 | 21 | 283 | 9.7 | 12.9 | 0.00 | 0.00 | 0.00 | 56 | 1017.5 |
| 20260903114507 | 21 | 265 | 9.7 | 12.9 | 0.00 | 0.00 | 0.00 | 57 | 1015.5 |
| 20260903114007 | 22 | 253 | 9.7 | 14.5 | 0.00 | 0.00 | 0.00 | 57 | 1015.6 |
| 20260903113953 | 22 | 264 | 9.7 | 17.7 | 0.00 | 0.00 | 0.00 | 54 | 1017.4 |
| 20260903113507 | 22 | 240 | 9.7 | 16.1 | 0.00 | 0.00 | 0.00 | 56 | 1015.7 |
| 20260903113454 | 22 | 247 | 9.7 | 17.7 | 0.00 | 0.00 | 0.00 | 53 | 1017.6 |
| 20260903113007 | 22 | 227 | 9.7 | 16.1 | 0.00 | 0.00 | 0.00 | 56 | 1015.7 |
| 20260903112954 | 22 | 252 | 9.7 | 17.7 | 0.00 | 0.00 | 0.00 | 53 | 1017.6 |
| 20260903112507 | 22 | 234 | 9.7 | 12.9 | 0.00 | 0.00 | 0.00 | 56 | 1015.7 |
| 20260903112007 | 22 | 270 | 9.7 | 12.9 | 0.00 | 0.00 | 0.00 | 56 | 1015.8 |
| 20260903111953 | 22 | 267 | 11.3 | 17.7 | 0.00 | 0.00 | 0.00 | 53 | 1017.8 |
| 20260903111507 | 22 | 288 | 9.7 | 12.9 | 0.00 | 0.00 | 0.00 | 56 | 1015.8 |
| 20260903111454 | 22 | 257 | 11.3 | 17.7 | 0.00 | 0.00 | 0.00 | 53 | 1017.6 |
| 20260903111007 | 21 | 286 | 9.7 | 12.9 | 0.00 | 0.00 | 0.00 | 60 | 1015.9 |
| 20260903110953 | 22 | 266 | 9.7 | 12.9 | 0.00 | 0.00 | 0.00 | 56 | 1017.7 |
| 20260903110007 | 21 | 258 | 11.3 | 14.5 | 0.00 | 0.00 | 0.00 | 58 | 1016.1 |
| 20260903105959 | 21 | 258 | 11.3 | 16.1 | 0.00 | 0.00 | 0.00 | 56 | 1017.7 |
| 20260903105453 | 21 | 254 | 12.9 | 16.1 | 0.00 | 0.00 | 0.00 | 55 | 1017.9 |
| 20260903105007 | 21 | 263 | 14.5 | 17.7 | 0.00 | 0.00 | 0.00 | 58 | 1016.1 |
| 20260903104953 | 21 | 268 | 14.5 | 17.7 | 0.00 | 0.00 | 0.00 | 56 | 1018.0 |
| 20260903104507 | 21 | 270 | 11.3 | 17.7 | 0.00 | 0.00 | 0.00 | 58 | 1016.1 |
| 20260903104453 | 21 | 281 | 11.3 | 17.7 | 0.00 | 0.00 | 0.00 | 55 | 1017.8 |
| 20260903103953 | 21 | 278 | 6.4 | 11.3 | 0.00 | 0.00 | 0.00 | 55 | 1018.1 |
| 20260903103453 | 21 | 289 | 9.7 | 12.9 | 0.00 | 0.00 | 0.00 | 55 | 1018.2 |
| 20260903102953 | 22 | 278 | 9.7 | 12.9 | 0.00 | 0.00 | 0.00 | 53 | 1018.1 |
| 20260903102507 | 21 | 237 | 6.4 | 8.0 | 0.00 | 0.00 | 0.00 | 58 | 1016.3 |
| 20260903102453 | 22 | 236 | 8.0 | 12.9 | 0.00 | 0.00 | 0.00 | 53 | 1018.2 |
| 20260903102007 | 21 | 243 | 8.0 | 9.7 | 0.00 | 0.00 | 0.00 | 57 | 1016.3 |
| 20260903101954 | 22 | 242 | 8.0 | 12.9 | 0.00 | 0.00 | 0.00 | 52 | 1018.2 |
| 20260903101507 | 21 | 247 | 8.0 | 9.7 | 0.00 | 0.00 | 0.00 | 59 | 1016.5 |
| 20260903101006 | 21 | 234 | 6.4 | 9.7 | 0.00 | 0.00 | 0.00 | 60 | 1016.4 |
| 20260903100953 | 22 | 230 | 8.0 | 17.7 | 0.00 | 0.00 | 0.00 | 54 | 1018.2 |
| 20260903100507 | 21 | 237 | 8.0 | 11.3 | 0.00 | 0.00 | 0.00 | 61 | 1016.5 |
| 20260903100453 | 22 | 231 | 8.0 | 17.7 | 0.00 | 0.00 | 0.00 | 54 | 1018.4 |
| 20260903100007 | 21 | 260 | 9.7 | 11.3 | 0.00 | 0.00 | 0.00 | 61 | 1016.5 |
| 20260903095959 | 21 | 263 | 9.7 | 11.3 | 0.00 | 0.00 | 0.00 | 56 | 1018.2 |
| 20260903095508 | 21 | 255 | 9.7 | 16.1 | 0.00 | 0.00 | 0.00 | 61 | 1016.6 |
| 20260903095007 | 21 | 243 | 9.7 | 16.1 | 0.00 | 0.00 | 0.00 | 60 | 1016.7 |
| 20260903094507 | 21 | 253 | 8.0 | 11.3 | 0.00 | 0.00 | 0.00 | 60 | 1016.6 |
| 20260903094453 | 22 | 241 | 8.0 | 11.3 | 0.00 | 0.00 | 0.00 | 53 | 1018.4 |
| 20260903094007 | 21 | 273 | 8.0 | 11.3 | 0.00 | 0.00 | 0.00 | 62 | 1016.7 |
| 20260903093953 | 21 | 247 | 8.0 | 11.3 | 0.00 | 0.00 | 0.00 | 56 | 1018.6 |
| 20260903093507 | 21 | 259 | 4.8 | 8.0 | 0.00 | 0.00 | 0.00 | 62 | 1016.6 |
| 20260903093453 | 21 | 240 | 4.8 | 8.0 | 0.00 | 0.00 | 0.00 | 57 | 1018.4 |
| 20260903093007 | 20 | 199 | 4.8 | 6.4 | 0.00 | 0.00 | 0.00 | 62 | 1016.8 |
| 20260903092953 | 21 | 218 | 4.8 | 6.4 | 0.00 | 0.00 | 0.00 | 55 | 1018.6 |
| 20260903092507 | 20 | 220 | 6.4 | 8.0 | 0.00 | 0.00 | 0.00 | 62 | 1017.0 |
| 20260903092453 | 21 | 233 | 6.4 | 9.7 | 0.00 | 0.00 | 0.00 | 55 | 1018.7 |
| 20260903092007 | 20 | 237 | 9.7 | 12.9 | 0.00 | 0.00 | 0.00 | 62 | 1017.0 |
| 20260903091953 | 21 | 256 | 8.0 | 12.9 | 0.00 | 0.00 | 0.00 | 56 | 1018.7 |
| 20260903091507 | 20 | 249 | 9.7 | 12.9 | 0.00 | 0.00 | 0.00 | 63 | 1016.8 |
| 20260903091007 | 20 | 255 | 8.0 | 12.9 | 0.00 | 0.00 | 0.00 | 63 | 1017.1 |
| 20260903090953 | 21 | 257 | 8.0 | 12.9 | 0.00 | 0.00 | 0.00 | 56 | 1018.6 |
| 20260903090007 | 20 | 262 | 8.0 | 12.9 | 0.00 | 0.00 | 0.00 | 64 | 1017.2 |
| 20260903085959 | 20 | 242 | 8.0 | 12.9 | 0.00 | 0.00 | 0.00 | 60 | 1019.0 |
| 20260903085507 | 20 | 280 | 9.7 | 12.9 | 0.00 | 0.00 | 0.00 | 65 | 1017.1 |
| 20260903085453 | 20 | 270 | 9.7 | 12.9 | 0.00 | 0.00 | 0.00 | 63 | 1018.9 |
| 20260903085007 | 20 | 271 | 8.0 | 12.9 | 0.00 | 0.00 | 0.00 | 65 | 1017.2 |
| 20260903084953 | 20 | 269 | 8.0 | 12.9 | 0.00 | 0.00 | 0.00 | 62 | 1018.9 |
| 20260903084507 | 20 | 263 | 8.0 | 17.7 | 0.00 | 0.00 | 0.00 | 66 | 1017.2 |
| 20260903084453 | 20 | 253 | 8.0 | 19.3 | 0.00 | 0.00 | 0.00 | 63 | 1018.9 |
| 20260903083953 | 20 | 265 | 8.0 | 19.3 | 0.00 | 0.00 | 0.00 | 62 | 1019.0 |
| 20260903083507 | 20 | 289 | 8.0 | 17.7 | 0.00 | 0.00 | 0.00 | 68 | 1017.0 |
| 20260903083453 | 20 | 294 | 8.0 | 11.3 | 0.00 | 0.00 | 0.00 | 64 | 1018.9 |
| 20260903083007 | 19 | 287 | 9.7 | 12.9 | 0.00 | 0.00 | 0.00 | 68 | 1017.2 |
| 20260903082953 | 20 | 288 | 9.7 | 14.5 | 0.00 | 0.00 | 0.00 | 64 | 1019.2 |
| 20260903082507 | 19 | 272 | 9.7 | 12.9 | 0.00 | 0.00 | 0.00 | 68 | 1017.0 |
| 20260903082453 | 20 | 288 | 9.7 | 14.5 | 0.00 | 0.00 | 0.00 | 65 | 1019.1 |
| 20260903082007 | 19 | 256 | 6.4 | 12.9 | 0.00 | 0.00 | 0.00 | 70 | 1017.1 |
| 20260903081507 | 19 | 240 | 8.0 | 12.9 | 0.00 | 0.00 | 0.00 | 70 | 1017.1 |
| 20260903080953 | 19 | 304 | 9.7 | 12.9 | 0.00 | 0.00 | 0.00 | 69 | 1019.1 |
| 20260903080507 | 18 | 275 | 9.7 | 11.3 | 0.00 | 0.00 | 0.00 | 74 | 1017.1 |
| 20260903080453 | 19 | 291 | 9.7 | 12.9 | 0.00 | 0.00 | 0.00 | 69 | 1018.9 |
| 20260903080007 | 18 | 269 | 9.7 | 12.9 | 0.00 | 0.00 | 0.00 | 74 | 1017.0 |
| 20260903075959 | 19 | 276 | 9.7 | 12.9 | 0.00 | 0.00 | 0.00 | 71 | 1018.9 |
| 20260903075454 | 19 | 269 | 9.7 | 12.9 | 0.00 | 0.00 | 0.00 | 71 | 1018.9 |
| 20260903075007 | 18 | 260 | 9.7 | 12.9 | 0.00 | 0.00 | 0.00 | 75 | 1017.2 |
| 20260903074953 | 18 | 259 | 9.7 | 12.9 | 0.00 | 0.00 | 0.00 | 71 | 1019.0 |
| 20260903074453 | 18 | 256 | 8.0 | 12.9 | 0.00 | 0.00 | 0.00 | 72 | 1018.9 |
| 20260903073953 | 18 | 254 | 8.0 | 11.3 | 0.00 | 0.00 | 0.00 | 74 | 1019.0 |
| 20260903073507 | 18 | 263 | 9.7 | 12.9 | 0.00 | 0.00 | 0.00 | 77 | 1017.0 |
| 20260903073453 | 18 | 245 | 9.7 | 12.9 | 0.00 | 0.00 | 0.00 | 74 | 1018.7 |
| 20260903073007 | 17 | 255 | 9.7 | 12.9 | 0.00 | 0.00 | 0.00 | 79 | 1017.1 |
| 20260903072953 | 18 | 250 | 9.7 | 12.9 | 0.00 | 0.00 | 0.00 | 75 | 1018.7 |
| 20260903072507 | 17 | 249 | 8.0 | 11.3 | 0.00 | 0.00 | 0.00 | 82 | 1017.1 |
| 20260903072453 | 18 | 261 | 8.0 | 11.3 | 0.00 | 0.00 | 0.00 | 77 | 1018.9 |
| 20260903072007 | 17 | 262 | 6.4 | 9.7 | 0.00 | 0.00 | 0.00 | 84 | 1017.1 |
| 20260903071953 | 17 | 241 | 4.8 | 9.7 | 0.00 | 0.00 | 0.00 | 79 | 1018.9 |
| 20260903071453 | 17 | 235 | 4.8 | 6.4 | 0.00 | 0.00 | 0.00 | 83 | 1018.8 |
| 20260903071006 | 17 | 264 | 4.8 | 6.4 | 0.00 | 0.00 | 0.00 | 88 | 1016.9 |
| 20260903070953 | 17 | 255 | 4.8 | 6.4 | 0.00 | 0.00 | 0.00 | 87 | 1018.9 |
| 20260903070507 | 16 | 269 | 4.8 | 6.4 | 0.00 | 0.00 | 0.00 | 91 | 1017.0 |
| 20260903070453 | 17 | 272 | 4.8 | 6.4 | 0.00 | 0.00 | 0.00 | 90 | 1018.9 |
| 20260903070007 | 16 | 270 | 4.8 | 6.4 | 0.00 | 0.00 | 0.00 | 92 | 1016.9 |
| 20260903065959 | 17 | 267 | 4.8 | 6.4 | 0.00 | 0.00 | 0.00 | 92 | 1019.0 |
| 20260903065507 | 16 | 267 | 3.2 | 6.4 | 0.00 | 0.00 | 0.00 | 93 | 1016.9 |
| 20260903065454 | 16 | 255 | 3.2 | 6.4 | 0.00 | 0.00 | 0.00 | 96 | 1018.6 |
| 20260903064953 | 16 | 247 | 1.6 | 6.4 | 0.00 | 0.00 | 0.00 | 98 | 1018.8 |
| 20260903064507 | 16 | 181 | 0.0 | 3.2 | 0.00 | 0.00 | 0.00 | 94 | 1016.8 |
| 20260903064007 | 15 | 253 | 1.6 | 3.2 | 0.00 | 0.00 | 0.00 | 96 | 1016.7 |
| 20260903063953 | 15 | 251 | 3.2 | 3.2 | 0.00 | 0.00 | 0.00 | 99 | 1018.7 |
| 20260903063507 | 15 | 277 | 1.6 | 4.8 | 0.00 | 0.00 | 0.00 | 96 | 1016.9 |
| 20260903063454 | 15 | 257 | 3.2 | 4.8 | 0.00 | 0.00 | 0.00 | 99 | 1018.8 |
| 20260903062454 | 15 | 270 | 3.2 | 4.8 | 0.00 | 0.00 | 0.00 | 99 | 1018.6 |
| 20260903062007 | 15 | 258 | 1.6 | 4.8 | 0.00 | 0.00 | 0.00 | 97 | 1016.7 |
| 20260903061953 | 15 | 250 | 3.2 | 4.8 | 0.00 | 0.00 | 0.00 | 99 | 1018.7 |
| 20260903061507 | 14 | 265 | 0.0 | 4.8 | 0.00 | 0.00 | 0.00 | 98 | 1016.9 |
| 20260903061453 | 14 | 222 | 1.6 | 4.8 | 0.00 | 0.00 | 0.00 | 99 | 1018.6 |
| 20260903061006 | 14 | 0 | 0.0 | 0.0 | 0.00 | 0.00 | 0.00 | 97 | 1016.7 |
| 20260903060507 | 13 | 0 | 0.0 | 0.0 | 0.00 | 0.00 | 0.00 | 97 | 1016.7 |
| 20260903060453 | 14 | 193 | 1.6 | 3.2 | 0.00 | 0.00 | 0.00 | 99 | 1018.6 |
| 20260903060007 | 13 | 209 | 0.0 | 3.2 | 0.00 | 0.00 | 0.00 | 97 | 1016.8 |
| 20260903055959 | 13 | 214 | 1.6 | 3.2 | 0.00 | 0.00 | 0.00 | 99 | 1019.0 |
| 20260903055507 | 13 | 209 | 0.0 | 3.2 | 0.00 | 0.00 | 0.00 | 98 | 1016.8 |
| 20260903055453 | 13 | 219 | 1.6 | 3.2 | 0.00 | 0.00 | 0.00 | 99 | 1018.8 |
| 20260903054953 | 13 | 239 | 1.6 | 3.2 | 0.00 | 0.00 | 0.00 | 99 | 1018.8 |
| 20260903054507 | 13 | 0 | 0.0 | 0.0 | 0.00 | 0.00 | 0.00 | 98 | 1017.0 |
| 20260903053953 | 12 | 188 | 1.6 | 3.2 | 0.00 | 0.00 | 0.00 | 97 | 1018.8 |
| 20260903053506 | 13 | 0 | 0.0 | 0.0 | 0.00 | 0.00 | 0.00 | 98 | 1017.0 |
| 20260903053007 | 13 | 0 | 0.0 | 0.0 | 0.00 | 0.00 | 0.00 | 98 | 1016.8 |
| 20260903052953 | 12 | 183 | 1.6 | 3.2 | 0.00 | 0.00 | 0.00 | 97 | 1018.9 |
| 20260903052453 | 12 | 181 | 0.0 | 3.2 | 0.00 | 0.00 | 0.00 | 97 | 1018.7 |
| 20260903052006 | 12 | 0 | 0.0 | 0.0 | 0.00 | 0.00 | 0.00 | 97 | 1016.7 |
| 20260903051507 | 12 | 0 | 0.0 | 0.0 | 0.00 | 0.00 | 0.00 | 97 | 1016.7 |
| 20260903051007 | 12 | 0 | 0.0 | 0.0 | 0.00 | 0.00 | 0.00 | 97 | 1016.7 |
| 20260903050953 | 11 | 0 | 0.0 | 0.0 | 0.00 | 0.00 | 0.00 | 98 | 1019.0 |
| 20260903050453 | 11 | 90 | 0.0 | 1.6 | 0.00 | 0.00 | 0.00 | 98 | 1018.9 |
| 20260903050006 | 11 | 0 | 0.0 | 0.0 | 0.00 | 0.00 | 0.00 | 98 | 1016.8 |
| 20260903050000 | 11 | 90 | 0.0 | 1.6 | 0.00 | 0.00 | 0.00 | 98 | 1018.8 |
| 20260903045507 | 11 | 0 | 0.0 | 0.0 | 0.00 | 0.00 | 0.00 | 98 | 1016.7 |
| 20260903045007 | 11 | 0 | 0.0 | 0.0 | 0.00 | 0.00 | 0.00 | 98 | 1016.8 |
| 20260903044954 | 11 | 0 | 0.0 | 0.0 | 0.00 | 0.00 | 0.00 | 98 | 1018.8 |
| 20260903044506 | 11 | 0 | 0.0 | 0.0 | 0.00 | 0.00 | 0.00 | 98 | 1016.7 |
| 20260903044453 | 11 | 0 | 0.0 | 0.0 | 0.00 | 0.00 | 0.00 | 98 | 1018.8 |
| 20260903044007 | 11 | 0 | 0.0 | 0.0 | 0.00 | 0.00 | 0.00 | 99 | 1016.9 |
| 20260903043953 | 11 | 135 | 0.0 | 1.6 | 0.00 | 0.00 | 0.00 | 98 | 1019.0 |
| 20260903043507 | 10 | 0 | 0.0 | 0.0 | 0.00 | 0.00 | 0.00 | 99 | 1016.7 |
| 20260903043453 | 11 | 135 | 0.0 | 1.6 | 0.00 | 0.00 | 0.00 | 98 | 1018.8 |
| 20260903043006 | 10 | 0 | 0.0 | 0.0 | 0.00 | 0.00 | 0.00 | 99 | 1016.8 |
| 20260903042953 | 11 | 0 | 0.0 | 0.0 | 0.00 | 0.00 | 0.00 | 99 | 1019.0 |
| 20260903042453 | 10 | 0 | 0.0 | 0.0 | 0.00 | 0.00 | 0.00 | 99 | 1018.8 |
| 20260903042007 | 10 | 0 | 0.0 | 0.0 | 0.00 | 0.00 | 0.00 | 99 | 1016.8 |
| 20260903041954 | 11 | 181 | 0.0 | 1.6 | 0.00 | 0.00 | 0.00 | 99 | 1018.8 |
| 20260903041506 | 10 | 0 | 0.0 | 0.0 | 0.00 | 0.00 | 0.00 | 99 | 1016.8 |
| 20260903041453 | 11 | 181 | 0.0 | 1.6 | 0.00 | 0.00 | 0.00 | 99 | 1018.8 |
| 20260903041007 | 10 | 0 | 0.0 | 0.0 | 0.00 | 0.00 | 0.00 | 99 | 1016.8 |
| 20260903040953 | 10 | 181 | 0.0 | 1.6 | 0.00 | 0.00 | 0.00 | 99 | 1018.8 |
| 20260903040507 | 10 | 0 | 0.0 | 0.0 | 0.00 | 0.00 | 0.00 | 99 | 1016.7 |
| 20260903040455 | 10 | 181 | 0.0 | 1.6 | 0.00 | 0.00 | 0.00 | 99 | 1018.8 |
| 20260903040009 | 10 | 0 | 0.0 | 0.0 | 0.00 | 0.00 | 0.00 | 99 | 1016.8 |
| 20260903035506 | 10 | 0 | 0.0 | 0.0 | 0.00 | 0.00 | 0.00 | 99 | 1016.6 |
| 20260903035453 | 10 | 0 | 0.0 | 0.0 | 0.00 | 0.00 | 0.00 | 99 | 1019.0 |
| 20260903035007 | 10 | 0 | 0.0 | 0.0 | 0.00 | 0.00 | 0.00 | 99 | 1016.7 |
| 20260903034953 | 10 | 0 | 0.0 | 0.0 | 0.00 | 0.00 | 0.00 | 99 | 1018.6 |
| 20260903034507 | 10 | 0 | 0.0 | 0.0 | 0.00 | 0.00 | 0.00 | 99 | 1016.6 |
| 20260903034453 | 11 | 0 | 0.0 | 0.0 | 0.00 | 0.00 | 0.00 | 99 | 1018.7 |
| 20260903034006 | 10 | 0 | 0.0 | 0.0 | 0.00 | 0.00 | 0.00 | 99 | 1016.6 |
| 20260903033954 | 11 | 0 | 0.0 | 0.0 | 0.00 | 0.00 | 0.00 | 98 | 1018.9 |
| 20260903033507 | 10 | 0 | 0.0 | 0.0 | 0.00 | 0.00 | 0.00 | 99 | 1016.5 |
| 20260903033454 | 11 | 0 | 0.0 | 0.0 | 0.00 | 0.00 | 0.00 | 99 | 1018.7 |
| 20260903033007 | 10 | 0 | 0.0 | 0.0 | 0.00 | 0.00 | 0.00 | 98 | 1016.6 |
| 20260903032953 | 10 | 0 | 0.0 | 0.0 | 0.00 | 0.00 | 0.00 | 99 | 1018.7 |
| 20260903032507 | 10 | 0 | 0.0 | 0.0 | 0.00 | 0.00 | 0.00 | 98 | 1016.8 |
| 20260903032453 | 10 | 0 | 0.0 | 0.0 | 0.00 | 0.00 | 0.00 | 99 | 1018.7 |
| 20260903031953 | 10 | 0 | 0.0 | 0.0 | 0.00 | 0.00 | 0.00 | 99 | 1018.7 |
| 20260903031507 | 10 | 0 | 0.0 | 0.0 | 0.00 | 0.00 | 0.00 | 98 | 1016.8 |
| 20260903031453 | 10 | 0 | 0.0 | 0.0 | 0.00 | 0.00 | 0.00 | 99 | 1018.6 |
| 20260903031007 | 10 | 0 | 0.0 | 0.0 | 0.00 | 0.00 | 0.00 | 98 | 1016.7 |
| 20260903030507 | 10 | 0 | 0.0 | 0.0 | 0.00 | 0.00 | 0.00 | 98 | 1016.7 |
| 20260903030006 | 10 | 0 | 0.0 | 0.0 | 0.00 | 0.00 | 0.00 | 98 | 1016.6 |
| 20260903025959 | 10 | 0 | 0.0 | 0.0 | 0.00 | 0.00 | 0.00 | 99 | 1018.7 |
| 20260903025506 | 10 | 0 | 0.0 | 0.0 | 0.00 | 0.00 | 0.00 | 98 | 1016.7 |
| 20260903025453 | 10 | 0 | 0.0 | 0.0 | 0.00 | 0.00 | 0.00 | 99 | 1018.6 |
| 20260903025007 | 10 | 0 | 0.0 | 0.0 | 0.00 | 0.00 | 0.00 | 98 | 1016.7 |
| 20260903024954 | 10 | 0 | 0.0 | 0.0 | 0.00 | 0.00 | 0.00 | 99 | 1018.6 |
| 20260903024507 | 10 | 0 | 0.0 | 0.0 | 0.00 | 0.00 | 0.00 | 97 | 1016.7 |
| 20260903024454 | 11 | 0 | 0.0 | 0.0 | 0.00 | 0.00 | 0.00 | 99 | 1018.8 |
| 20260903024007 | 10 | 0 | 0.0 | 0.0 | 0.00 | 0.00 | 0.00 | 97 | 1016.7 |
| 20260903023953 | 11 | 0 | 0.0 | 0.0 | 0.00 | 0.00 | 0.00 | 98 | 1019.0 |
| 20260903023507 | 11 | 0 | 0.0 | 0.0 | 0.00 | 0.00 | 0.00 | 97 | 1016.8 |
| 20260903023453 | 11 | 0 | 0.0 | 0.0 | 0.00 | 0.00 | 0.00 | 98 | 1018.9 |
| 20260903022953 | 11 | 0 | 0.0 | 0.0 | 0.00 | 0.00 | 0.00 | 98 | 1018.7 |
| 20260903022453 | 11 | 0 | 0.0 | 0.0 | 0.00 | 0.00 | 0.00 | 99 | 1018.9 |
| 20260903022007 | 11 | 0 | 0.0 | 0.0 | 0.00 | 0.00 | 0.00 | 96 | 1016.8 |
| 20260903021953 | 11 | 0 | 0.0 | 0.0 | 0.00 | 0.00 | 0.00 | 99 | 1018.7 |
| 20260903021507 | 11 | 0 | 0.0 | 0.0 | 0.00 | 0.00 | 0.00 | 96 | 1016.7 |
| 20260903021454 | 11 | 0 | 0.0 | 0.0 | 0.00 | 0.00 | 0.00 | 98 | 1018.8 |
| 20260903021007 | 11 | 0 | 0.0 | 0.0 | 0.00 | 0.00 | 0.00 | 96 | 1016.7 |
| 20260903020954 | 11 | 0 | 0.0 | 0.0 | 0.00 | 0.00 | 0.00 | 98 | 1018.8 |
| 20260903020507 | 11 | 0 | 0.0 | 0.0 | 0.00 | 0.00 | 0.00 | 96 | 1016.7 |
| 20260903020453 | 11 | 0 | 0.0 | 0.0 | 0.00 | 0.00 | 0.00 | 98 | 1018.8 |
| 20260903020007 | 11 | 0 | 0.0 | 0.0 | 0.00 | 0.00 | 0.00 | 96 | 1016.8 |
| 20260903015959 | 11 | 0 | 0.0 | 0.0 | 0.00 | 0.00 | 0.00 | 98 | 1018.8 |
| 20260903015506 | 11 | 0 | 0.0 | 0.0 | 0.00 | 0.00 | 0.00 | 96 | 1016.8 |
| 20260903015453 | 11 | 0 | 0.0 | 0.0 | 0.00 | 0.00 | 0.00 | 98 | 1018.9 |
| 20260903015007 | 11 | 0 | 0.0 | 0.0 | 0.00 | 0.00 | 0.00 | 96 | 1016.8 |
| 20260903014954 | 11 | 0 | 0.0 | 0.0 | 0.00 | 0.00 | 0.00 | 98 | 1018.7 |
| 20260903014507 | 11 | 0 | 0.0 | 0.0 | 0.00 | 0.00 | 0.00 | 96 | 1016.9 |
| 20260903014007 | 11 | 0 | 0.0 | 0.0 | 0.00 | 0.00 | 0.00 | 96 | 1016.7 |
| 20260903013507 | 11 | 0 | 0.0 | 0.0 | 0.00 | 0.00 | 0.00 | 96 | 1016.9 |
| 20260903013453 | 11 | 0 | 0.0 | 0.0 | 0.00 | 0.00 | 0.00 | 98 | 1018.7 |
| 20260903013006 | 11 | 0 | 0.0 | 0.0 | 0.00 | 0.00 | 0.00 | 96 | 1016.9 |
| 20260903012953 | 11 | 0 | 0.0 | 0.0 | 0.00 | 0.00 | 0.00 | 98 | 1018.9 |
| 20260903012454 | 11 | 0 | 0.0 | 0.0 | 0.00 | 0.00 | 0.00 | 98 | 1018.7 |
| 20260903012007 | 12 | 0 | 0.0 | 0.0 | 0.00 | 0.00 | 0.00 | 95 | 1016.8 |
| 20260903011953 | 12 | 0 | 0.0 | 0.0 | 0.00 | 0.00 | 0.00 | 97 | 1018.9 |
| 20260903011453 | 12 | 0 | 0.0 | 0.0 | 0.00 | 0.00 | 0.00 | 97 | 1018.8 |
| 20260903011006 | 12 | 0 | 0.0 | 0.0 | 0.00 | 0.00 | 0.00 | 95 | 1016.9 |
| 20260903010953 | 12 | 0 | 0.0 | 0.0 | 0.00 | 0.00 | 0.00 | 97 | 1018.8 |
| 20260903010507 | 12 | 0 | 0.0 | 0.0 | 0.00 | 0.00 | 0.00 | 95 | 1016.7 |
| 20260903010453 | 12 | 0 | 0.0 | 0.0 | 0.00 | 0.00 | 0.00 | 97 | 1018.9 |
| 20260903010007 | 12 | 0 | 0.0 | 0.0 | 0.00 | 0.00 | 0.00 | 95 | 1016.9 |
| 20260903005507 | 12 | 0 | 0.0 | 0.0 | 0.00 | 0.00 | 0.00 | 95 | 1016.9 |
| 20260903005007 | 12 | 0 | 0.0 | 0.0 | 0.00 | 0.00 | 0.00 | 95 | 1016.8 |
| 20260903004953 | 12 | 0 | 0.0 | 0.0 | 0.00 | 0.00 | 0.00 | 97 | 1018.8 |
| 20260903004506 | 12 | 0 | 0.0 | 0.0 | 0.00 | 0.00 | 0.00 | 95 | 1017.0 |
| 20260903004454 | 12 | 0 | 0.0 | 0.0 | 0.00 | 0.00 | 0.00 | 97 | 1018.8 |
| 20260903004006 | 12 | 0 | 0.0 | 0.0 | 0.00 | 0.00 | 0.00 | 95 | 1016.8 |
| 20260903003953 | 12 | 0 | 0.0 | 0.0 | 0.00 | 0.00 | 0.00 | 97 | 1018.9 |
| 20260903003507 | 12 | 0 | 0.0 | 0.0 | 0.00 | 0.00 | 0.00 | 95 | 1016.9 |
| 20260903003453 | 12 | 0 | 0.0 | 0.0 | 0.00 | 0.00 | 0.00 | 97 | 1018.8 |
| 20260903002954 | 12 | 0 | 0.0 | 0.0 | 0.00 | 0.00 | 0.00 | 97 | 1018.8 |
| 20260903002506 | 12 | 0 | 0.0 | 0.0 | 0.00 | 0.00 | 0.00 | 95 | 1016.7 |
| 20260903002453 | 12 | 0 | 0.0 | 0.0 | 0.00 | 0.00 | 0.00 | 97 | 1018.8 |
| 20260903002007 | 12 | 0 | 0.0 | 0.0 | 0.00 | 0.00 | 0.00 | 95 | 1016.9 |
| 20260903001507 | 12 | 0 | 0.0 | 0.0 | 0.00 | 0.00 | 0.00 | 95 | 1016.8 |
| 20260903001454 | 12 | 0 | 0.0 | 0.0 | 0.00 | 0.00 | 0.00 | 97 | 1018.8 |
| 20260903001006 | 12 | 0 | 0.0 | 0.0 | 0.00 | 0.00 | 0.00 | 95 | 1016.8 |
| 20260903000953 | 12 | 0 | 0.0 | 0.0 | 0.00 | 0.00 | 0.00 | 97 | 1018.7 |
| 20260903000506 | 12 | 0 | 0.0 | 0.0 | 0.00 | 0.00 | 0.00 | 95 | 1016.8 |
| 20260903000454 | 12 | 0 | 0.0 | 0.0 | 0.00 | 0.00 | 0.00 | 97 | 1018.8 |
| 20260903000007 | 12 | 0 | 0.0 | 0.0 | 0.00 | 0.00 | 0.00 | 95 | 1016.7 |
| 20260902235454 | 12 | 0 | 0.0 | 0.0 | 0.00 | 0.00 | 0.00 | 96 | 1018.8 |
| 20260902235006 | 13 | 0 | 0.0 | 0.0 | 0.00 | 0.00 | 0.00 | 95 | 1016.8 |
| 20260902234953 | 12 | 0 | 0.0 | 0.0 | 0.00 | 0.00 | 0.00 | 96 | 1018.9 |
| 20260902234507 | 13 | 0 | 0.0 | 0.0 | 0.00 | 0.00 | 0.00 | 95 | 1016.8 |
| 20260902234453 | 12 | 0 | 0.0 | 0.0 | 0.00 | 0.00 | 0.00 | 96 | 1018.8 |
| 20260902234006 | 12 | 0 | 0.0 | 0.0 | 0.00 | 0.00 | 0.00 | 95 | 1016.8 |
| 20260902233953 | 12 | 0 | 0.0 | 0.0 | 0.00 | 0.00 | 0.00 | 96 | 1018.9 |
| 20260902233506 | 13 | 0 | 0.0 | 0.0 | 0.00 | 0.00 | 0.00 | 95 | 1016.8 |
| 20260902233453 | 12 | 0 | 0.0 | 0.0 | 0.00 | 0.00 | 0.00 | 96 | 1019.0 |
| 20260902233007 | 13 | 0 | 0.0 | 0.0 | 0.00 | 0.00 | 0.00 | 95 | 1016.7 |
| 20260902232954 | 13 | 0 | 0.0 | 0.0 | 0.00 | 0.00 | 0.00 | 96 | 1018.9 |
| 20260902232506 | 13 | 0 | 0.0 | 0.0 | 0.00 | 0.00 | 0.00 | 94 | 1016.7 |
| 20260902232453 | 13 | 0 | 0.0 | 0.0 | 0.00 | 0.00 | 0.00 | 96 | 1018.8 |
| 20260902232006 | 13 | 0 | 0.0 | 0.0 | 0.00 | 0.00 | 0.00 | 94 | 1016.9 |
| 20260902231954 | 13 | 0 | 0.0 | 0.0 | 0.00 | 0.00 | 0.00 | 95 | 1018.9 |
| 20260902231507 | 13 | 0 | 0.0 | 0.0 | 0.00 | 0.00 | 0.00 | 94 | 1016.7 |
| 20260902231453 | 13 | 0 | 0.0 | 0.0 | 0.00 | 0.00 | 0.00 | 95 | 1019.0 |
| 20260902230506 | 13 | 0 | 0.0 | 0.0 | 0.00 | 0.00 | 0.00 | 94 | 1016.9 |
| 20260902230453 | 13 | 0 | 0.0 | 0.0 | 0.00 | 0.00 | 0.00 | 95 | 1018.8 |
| 20260902230007 | 13 | 0 | 0.0 | 0.0 | 0.00 | 0.00 | 0.00 | 93 | 1016.9 |
| 20260902225959 | 13 | 0 | 0.0 | 0.0 | 0.00 | 0.00 | 0.00 | 94 | 1018.9 |
| 20260902225453 | 13 | 0 | 0.0 | 0.0 | 0.00 | 0.00 | 0.00 | 94 | 1018.8 |
| 20260902225006 | 13 | 0 | 0.0 | 0.0 | 0.00 | 0.00 | 0.00 | 93 | 1016.9 |
| 20260902224954 | 13 | 0 | 0.0 | 0.0 | 0.00 | 0.00 | 0.00 | 94 | 1018.8 |
| 20260902224507 | 13 | 0 | 0.0 | 0.0 | 0.00 | 0.00 | 0.00 | 93 | 1016.9 |
| 20260902224454 | 13 | 0 | 0.0 | 0.0 | 0.00 | 0.00 | 0.00 | 93 | 1018.8 |
| 20260902224007 | 13 | 0 | 0.0 | 0.0 | 0.00 | 0.00 | 0.00 | 92 | 1016.8 |
| 20260902223953 | 13 | 0 | 0.0 | 0.0 | 0.00 | 0.00 | 0.00 | 92 | 1018.9 |
| 20260902223506 | 13 | 0 | 0.0 | 0.0 | 0.00 | 0.00 | 0.00 | 92 | 1016.7 |
| 20260902223453 | 13 | 0 | 0.0 | 0.0 | 0.00 | 0.00 | 0.00 | 92 | 1018.8 |
| 20260902222506 | 13 | 0 | 0.0 | 0.0 | 0.00 | 0.00 | 0.00 | 92 | 1016.8 |
| 20260902222453 | 13 | 0 | 0.0 | 0.0 | 0.00 | 0.00 | 0.00 | 92 | 1018.7 |
| 20260902222007 | 13 | 0 | 0.0 | 0.0 | 0.00 | 0.00 | 0.00 | 92 | 1016.6 |
| 20260902221954 | 13 | 0 | 0.0 | 0.0 | 0.00 | 0.00 | 0.00 | 92 | 1018.5 |
| 20260902221453 | 13 | 0 | 0.0 | 0.0 | 0.00 | 0.00 | 0.00 | 91 | 1018.6 |
| 20260902220954 | 13 | 0 | 0.0 | 0.0 | 0.00 | 0.00 | 0.00 | 91 | 1018.6 |
| 20260902220506 | 13 | 0 | 0.0 | 0.0 | 0.00 | 0.00 | 0.00 | 90 | 1016.7 |
| 20260902220453 | 13 | 0 | 0.0 | 0.0 | 0.00 | 0.00 | 0.00 | 91 | 1018.7 |
| 20260902220007 | 13 | 0 | 0.0 | 0.0 | 0.00 | 0.00 | 0.00 | 90 | 1016.7 |
| 20260902215454 | 13 | 0 | 0.0 | 0.0 | 0.00 | 0.00 | 0.00 | 89 | 1018.7 |
| 20260902215006 | 13 | 0 | 0.0 | 0.0 | 0.00 | 0.00 | 0.00 | 90 | 1016.7 |
| 20260902214506 | 14 | 0 | 0.0 | 0.0 | 0.00 | 0.00 | 0.00 | 90 | 1016.7 |
| 20260902214454 | 13 | 0 | 0.0 | 0.0 | 0.00 | 0.00 | 0.00 | 89 | 1018.7 |
| 20260902213953 | 14 | 0 | 0.0 | 0.0 | 0.00 | 0.00 | 0.00 | 89 | 1018.6 |
| 20260902213506 | 14 | 0 | 0.0 | 0.0 | 0.00 | 0.00 | 0.00 | 89 | 1016.7 |
| 20260902212954 | 14 | 0 | 0.0 | 0.0 | 0.00 | 0.00 | 0.00 | 88 | 1018.7 |
| 20260902212507 | 14 | 0 | 0.0 | 0.0 | 0.00 | 0.00 | 0.00 | 88 | 1016.7 |
| 20260902212453 | 14 | 0 | 0.0 | 0.0 | 0.00 | 0.00 | 0.00 | 88 | 1018.6 |
| 20260902212006 | 14 | 0 | 0.0 | 0.0 | 0.00 | 0.00 | 0.00 | 88 | 1016.7 |
| 20260902211953 | 14 | 0 | 0.0 | 0.0 | 0.00 | 0.00 | 0.00 | 88 | 1018.5 |
| 20260902211507 | 14 | 0 | 0.0 | 0.0 | 0.00 | 0.00 | 0.00 | 88 | 1016.6 |
| 20260902211007 | 15 | 0 | 0.0 | 0.0 | 0.00 | 0.00 | 0.00 | 88 | 1016.7 |
| 20260902210954 | 15 | 0 | 0.0 | 0.0 | 0.00 | 0.00 | 0.00 | 88 | 1018.5 |
| 20260902210506 | 15 | 0 | 0.0 | 0.0 | 0.00 | 0.00 | 0.00 | 88 | 1016.6 |
| 20260902210006 | 15 | 0 | 0.0 | 0.0 | 0.00 | 0.00 | 0.00 | 86 | 1016.5 |
| 20260902205959 | 15 | 0 | 0.0 | 0.0 | 0.00 | 0.00 | 0.00 | 86 | 1018.7 |
| 20260902205507 | 15 | 0 | 0.0 | 0.0 | 0.00 | 0.00 | 0.00 | 86 | 1016.8 |
| 20260902205453 | 15 | 0 | 0.0 | 0.0 | 0.00 | 0.00 | 0.00 | 86 | 1018.6 |
| 20260902205006 | 15 | 0 | 0.0 | 0.0 | 0.00 | 0.00 | 0.00 | 86 | 1016.5 |
| 20260902204953 | 15 | 0 | 0.0 | 0.0 | 0.00 | 0.00 | 0.00 | 86 | 1018.7 |
| 20260902204506 | 15 | 0 | 0.0 | 0.0 | 0.00 | 0.00 | 0.00 | 86 | 1016.7 |
| 20260902203953 | 15 | 0 | 0.0 | 0.0 | 0.00 | 0.00 | 0.00 | 86 | 1018.4 |
| 20260902203506 | 15 | 0 | 0.0 | 0.0 | 0.00 | 0.00 | 0.00 | 86 | 1016.7 |
| 20260902203006 | 15 | 0 | 0.0 | 0.0 | 0.00 | 0.00 | 0.00 | 86 | 1016.9 |
| 20260902202507 | 15 | 0 | 0.0 | 0.0 | 0.00 | 0.00 | 0.00 | 86 | 1016.6 |
| 20260902202453 | 15 | 0 | 0.0 | 0.0 | 0.00 | 0.00 | 0.00 | 86 | 1018.7 |
| 20260902202006 | 16 | 0 | 0.0 | 0.0 | 0.00 | 0.00 | 0.00 | 86 | 1016.8 |
| 20260902201953 | 16 | 0 | 0.0 | 0.0 | 0.00 | 0.00 | 0.00 | 87 | 1018.6 |
| 20260902201506 | 16 | 0 | 0.0 | 0.0 | 0.00 | 0.00 | 0.00 | 87 | 1016.8 |
| 20260902201455 | 16 | 181 | 1.6 | 3.2 | 0.00 | 0.00 | 0.00 | 87 | 1018.9 |
| 20260902201007 | 16 | 0 | 0.0 | 0.0 | 0.00 | 0.00 | 0.00 | 87 | 1016.9 |
| 20260902200953 | 16 | 181 | 1.6 | 3.2 | 0.00 | 0.00 | 0.00 | 87 | 1018.9 |
| 20260902200507 | 15 | 0 | 0.0 | 0.0 | 0.00 | 0.00 | 0.00 | 87 | 1017.0 |
| 20260902200453 | 16 | 181 | 1.6 | 3.2 | 0.00 | 0.00 | 0.00 | 87 | 1018.9 |
| 20260902200006 | 15 | 225 | 0.0 | 1.6 | 0.00 | 0.00 | 0.00 | 87 | 1017.0 |
| 20260902195959 | 16 | 181 | 1.6 | 3.2 | 0.00 | 0.00 | 0.00 | 87 | 1019.2 |
| 20260902195506 | 15 | 225 | 0.0 | 1.6 | 0.00 | 0.00 | 0.00 | 87 | 1017.1 |
| 20260902195454 | 16 | 181 | 0.0 | 1.6 | 0.00 | 0.00 | 0.00 | 87 | 1019.0 |
| 20260902194506 | 15 | 0 | 0.0 | 0.0 | 0.00 | 0.00 | 0.00 | 86 | 1017.1 |
| 20260902194453 | 15 | 181 | 0.0 | 3.2 | 0.00 | 0.00 | 0.00 | 86 | 1019.0 |
| 20260902194007 | 16 | 0 | 0.0 | 0.0 | 0.00 | 0.00 | 0.00 | 86 | 1016.9 |
| 20260902193953 | 16 | 181 | 0.0 | 1.6 | 0.00 | 0.00 | 0.00 | 86 | 1019.0 |
| 20260902193507 | 16 | 0 | 0.0 | 0.0 | 0.00 | 0.00 | 0.00 | 86 | 1017.1 |
| 20260902193453 | 16 | 225 | 0.0 | 1.6 | 0.00 | 0.00 | 0.00 | 86 | 1018.9 |
| 20260902193006 | 16 | 270 | 0.0 | 1.6 | 0.00 | 0.00 | 0.00 | 85 | 1017.1 |
| 20260902192954 | 16 | 225 | 1.6 | 3.2 | 0.00 | 0.00 | 0.00 | 84 | 1019.0 |
| 20260902192506 | 16 | 270 | 0.0 | 1.6 | 0.00 | 0.00 | 0.00 | 84 | 1017.1 |
| 20260902192453 | 16 | 225 | 1.6 | 3.2 | 0.00 | 0.00 | 0.00 | 84 | 1019.1 |
| 20260902192007 | 16 | 270 | 0.0 | 1.6 | 0.00 | 0.00 | 0.00 | 84 | 1017.2 |